Starlink 5491

operational
NORAD ID: 55332 Int'l Des: 2023-013 Owner: SPXS Country: US Constellation: starlink
LEOCIRCULAR

Starlink 5491について

説明を読み込み中...

リアルタイム位置

3D地球を読み込み中...

次回通過

高度履歴

Altitude vs Time

uPlot chart will show altitude changes over time

軌道要素

1 55332U 23013B 25352.09579112 -.00000439 00000-0 -17456-4 0 9993
2 55332 43.0049 10.8389 0001219 265.8183 94.2520 15.02532966159584
Epoch: Dec 18, 2025 • Age: 10 hours

現在のステータス

高度 558.5 km
速度 7.58 km/s
衛星直下点 4.34°N, 93.13°W
打ち上げ日 Jan 26, 2023
運用期間 2.8 years
タイプ internet

技術仕様

分類 Payload
質量 305.00 kg
乾燥質量 290.00 kg
総質量 305.00 kg
長さ 0.20 m
直径 2.80 m
スパン 9.00 m
形状 Box + pan
製造者 SPXS
バスタイプ Starlink
フェーズステータス In Orbit
所有者/国 SPXS/US

大規模コンステレーション

Loading constellations...